SCP
-0 -0 0 0 -0 -0 -0 0 -0 0 0 0 0 0 0 0 0 0 0 0 0 0 0 0 0 0 0 0 0 0 0 0 0 0 0 0 0 0 0 0 0 0 0 0 0 0 0 0 0
0 0 0 0 -0 0 -0 0 -0 -0 0 0 0 0 -0 0 0 0 0 0 0 0 0 0 0 0 0 0 0 0 0 0 0 0 0 0 0 0 0 0 0 0 0 0 0 0 0 0 0
0 0 0 -0 -0 -0 0 -0 0 -0 -0 -0 0 0 0 -0 -0 0 0 0 0 0 0 0 0 0 0 0 0 0 0 0 0 0 0 0 0 0 0 0 0 0 0 0 0 0 0 0 0
0 0 0 0 0 0 0 -0 0 -0 -0 -0 -0 -0 0 -0 -0 0 0 0 0 0 0 0 0 0 0 0 0 0 0 0 0 0 0 0 0 0 0 0 0 0 0 0 0 0 0 0 0
0 0 -0 0 0 0 0 -0 -0 -0 -0 0 0 0 0 0 0 0 0 0 0 0 1 0 0 0 0 0 0 0 0 0 0 0 0 0 0 0 0 0 0 0 0 0 0 0 0 0 0
0 0 0 0 0 0 0 0 0 0 0 0 0 0 0 0 0 0 0 0 0 0 0 0 0 0 0 0 0 0 0 0 0 0 0 0 0 0 0 0 0 0 0 0 0 0 0 0 0
0 0 0 0 0 0 0 0 0 0 0 0 0 0 0 0 0 0 0 0 0 0 0 0 0 0 0 0 0 0 0 0 0 0 0 0 0 0 0 0 0 0 0 0 0 0 0 0 0
0 0 0 0 0 0 0 0 0 0 0 0 0 0 0 0 0 0 0 0 0 0 0 0 0 0 0 0 0 0 0 0 0 0 0 0 0 0 0 0 0 0 0 0 0 0 0 0 0
0 0 0 0 0 0 0 0 0 0 0 0 0 0 0 -0 0 0 0 0 0 0 0 0 0 0 0 0 0 0 0 0 0 0 0 0 0 0 0 0 0 0 0 0 0 0 0 0 0
0 0 0 0 0 0 0 0 0 0 0 0 0 0 0 -0 -0 0 0 0 0 0 0 0 0 0 0 0 0 0 0 0 0 0 0 0 0 0 0 0 0 0 0 0 0 0 0 0 0
0 0 0 0 0 0 0 0 0 0 0 0 0 -0 -0 -0 0 0 0 0 0 0 0 0 0 0 0 0 0 0 0 0 0 0 0 0 0 0 0 0 0 0 0 0 0 0 0 0 0
0 0 0 0 0 0 0 0 0 -0 0 0 -0 -0 -0 -0 -0 0 0 0 0 0 0 0 0 0 0 0 0 0 0 0 0 0 0 0 0 0 0 0 0 0 0 0 0 0 0 0 0
0 0 0 0 0 0 0 0 0 -0 0 0 -0 -0 -0 -0 -0 0 0 0 0 0 0 0 0 0 0 0 0 0 0 0 0 0 0 0 0 0 0 0 0 0 0 0 0 0 0 0 0
0 0 0 0 0 0 0 0 0 0 0 0 -0 -0 -0 -0 0 0 0 0 0 0 0 0 0 0 0 0 0 0 0 0 0 0 0 0 0 0 0 0 0 0 0 0 0 0 0 0 0
0 0 0 0 0 0 0 -0 -0 0 0 0 -0 -0 0 0 0 0 0 0 0 0 0 0 0 0 0 0 0 0 0 0 0 0 0 0 0 0 0 0 0 0 0 0 0 0 0 0 0
0 0 0 0 0 0 0 0 0 0 0 0 0 0 0 -0 -0 0 0 0 0 0 0 0 0 0 0 0 0 0 0 0 0 0 0 0 0 0 0 0 0 0 0 0 0 0 0 0 0
0 0 0 0 0 0 0 0 0 0 0 0 0 0 0 0 0 0 0 0 0 0 0 0 0 0 0 0 0 0 0 0 0 0 0 0 0 0 0 0 0 0 0 0 0 0 0 0 0
0 0 0 0 0 0 0 -0 0 0 0 0 0 0 0 0 0 0 0 0 0 0 0 0 0 0 0 0 0 0 0 0 0 0 0 0 0 0 0 0 0 0 0 0 0 0 0 0 0
0 0 0 0 0 0 0 0 0 0 0 -0 -0 0 0 0 0 0 0 0 0 0 0 0 0 0 0 0 0 0 0 0 0 0 0 0 0 0 0 0 0 0 0 0 0 0 0 0 0
0 0 0 0 0 0 0 0 0 0 0 0 0 0 0 0 0 0 0 0 0 0 0 0 0 0 0 0 0 0 0 0 0 0 0 0 0 0 0 0 0 0 0 0 0 0 0 0 0
0 0 0 0 0 0 0 0 0 0 0 0 0 0 0 0 0 0 0 0 0 0 0 0 -0 -0 0 0 0 0 0 0 0 0 0 0 0 0 0 0 0 0 0 0 0 0 0 0 0
0 0 0 0 0 0 0 0 0 0 -0 0 0 0 0 0 0 0 0 0 0 0 0 0 0 0 0 0 0 0 0 0 0 0 0 0 0 0 0 0 0 0 0 0 0 0 0 0 0
0 0 0 0 0 0 0 0 0 -0 0 -0 0 0 0 0 0 0 0 0 0 0 0 0 0 0 0 0 0 0 0 0 0 0 0 0 0 0 0 0 0 0 0 0 0 0 0 0 0
0 0 0 0 0 0 0 0 0 0 0 0 0 0 0 0 0 0 0 0 0 0 0 0 0 0 0 0 0 0 0 0 0 0 0 0 0 0 0 0 0 0 0 0 0 0 0 0 0
0 0 0 0 0 0 0 0 0 0 0 0 0 0 0 0 0 0 0 0 0 0 0 0 0 0 0 0 0 0 0 0 0 0 0 0 0 0 0 0 0 0 0 0 0 0 0 0 0
0 0 0 0 0 0 0 0 0 0 0 0 0 0 0 0 0 0 0 0 0 0 0 0 0 0 0 0 0 0 0 0 0 0 0 0 0 0 0 0 0 0 0 0 0 0 0 0 0
0 0 0 0 0 0 0 0 0 0 0 0 0 0 0 0 0 0 0 0 0 0 0 -0 0 0 0 0 0 0 0 0 0 0 0 0 0 0 0 0 0 0 0 0 0 0 0 0 0
0 0 0 0 0 0 0 0 0 0 0 0 0 0 0 0 0 0 0 0 0 0 0 -0 0 0 0 0 0 0 0 0 0 0 0 0 0 0 0 0 0 0 0 0 0 0 0 0 0
0 0 0 0 0 0 0 0 0 0 0 0 0 0 0 0 0 0 0 0 0 0 0 0 0 0 0 0 0 0 0 0 0 0 0 0 0 0 0 0 0 0 0 0 0 0 0 0 0
0 0 0 0 0 0 0 0 0 0 0 0 0 0 0 0 0 0 0 0 0 0 0 0 0 0 0 0 0 0 0 0 0 0 0 0 0 0 0 0 0 0 0 0 0 0 0 0 0
Wind_Speed_500mb
5 10 11 7 3 9 7 7 2 9 6 4 9 2 7 9 7 11 20 16 9 8 10 10 12 11 10 10 11 12 14 18 20 18 18 17 18 20 23 29 32 32 30 26 23 22 22 19 18
11 8 8 4 6 10 6 4 12 2 14 21 18 12 10 10 9 21 17 13 6 7 7 8 9 9 8 8 9 11 18 22 20 16 14 16 19 23 28 31 30 25 22 20 16 15 16 18 18
11 8 5 6 6 8 8 3 12 25 8 4 5 8 6 7 14 17 20 12 7 3 4 4 6 8 8 7 8 14 22 24 18 15 16 15 18 23 29 31 26 22 23 24 25 22 15 14 14
6 8 10 8 16 8 7 15 18 5 8 8 8 13 12 4 8 15 19 12 9 1 4 4 6 7 8 7 9 16 23 25 22 17 14 15 18 22 25 28 27 22 25 27 27 24 20 17 15
6 6 9 9 9 5 10 10 6 3 3 2 4 8 8 12 19 20 15 11 5 7 10 10 10 10 9 9 9 18 24 26 26 17 10 11 16 19 20 24 25 23 21 23 26 25 23 23 21
3 5 6 7 7 7 9 10 7 4 8 8 11 13 6 18 19 17 11 7 7 10 12 14 14 10 11 10 12 17 20 28 30 20 12 10 14 18 20 17 20 22 25 25 29 29 28 25 23
7 6 7 11 11 10 11 9 6 10 8 5 7 6 7 17 21 14 10 7 11 13 16 17 14 13 11 9 12 14 23 30 31 22 15 13 15 19 21 21 23 29 30 31 32 30 27 26 25
8 7 8 5 14 5 13 8 14 12 6 9 9 6 9 27 22 15 13 12 13 15 16 13 11 10 10 8 10 14 23 31 29 24 17 15 18 21 22 22 27 33 35 33 29 28 27 26 25
7 5 5 9 13 6 20 11 9 5 8 10 10 9 13 29 23 18 16 12 16 18 16 13 8 10 11 6 11 15 23 30 29 25 22 19 21 20 20 24 28 33 30 26 27 29 30 28 25
3 3 7 10 16 9 22 18 22 11 16 9 9 16 16 28 23 20 14 17 20 19 17 14 7 11 14 10 11 14 21 27 28 26 28 25 24 21 21 25 29 29 25 28 30 34 30 27 22
2 7 6 10 17 14 28 17 16 13 14 23 23 25 29 29 25 21 16 17 16 17 18 17 8 6 13 12 11 15 20 25 27 26 31 30 28 24 24 28 31 29 28 31 31 31 26 23 19
3 3 3 6 13 13 18 18 16 31 15 12 31 23 31 29 26 18 15 15 14 17 18 16 10 4 11 13 10 13 19 22 23 25 31 30 28 27 26 28 30 33 35 34 35 33 27 19 16
3 4 6 1 10 7 13 12 10 25 22 14 28 34 35 30 27 22 18 9 11 16 16 16 14 9 7 9 10 13 17 17 19 24 31 33 31 31 31 31 32 32 35 40 38 33 27 19 15
5 4 4 5 14 12 12 9 9 10 37 17 34 36 37 37 32 27 22 13 10 12 15 16 15 11 10 9 10 13 9 10 12 19 29 34 31 31 30 31 32 32 36 38 40 38 33 25 15
2 5 3 9 14 5 10 19 27 18 39 30 40 42 43 44 40 37 27 22 14 10 15 16 14 12 8 7 7 8 4 7 10 17 25 31 30 32 34 33 32 35 36 38 38 34 32 30 20
3 0 7 4 14 6 7 20 4 24 33 38 41 43 50 49 47 43 34 29 22 13 13 15 14 13 9 7 8 5 3 4 8 14 20 27 28 29 34 38 38 35 36 38 39 38 34 29 20
5 11 11 10 15 6 20 25 11 10 31 36 44 48 49 48 48 48 43 36 28 19 14 14 15 15 12 10 9 10 10 9 10 14 18 23 25 26 31 36 40 37 35 37 39 37 36 30 18
5 9 7 13 1 17 19 41 23 11 29 42 54 44 46 48 52 48 47 41 34 25 16 13 16 18 16 14 13 16 17 14 13 13 17 21 25 25 28 33 38 36 32 32 35 36 33 30 14
10 12 11 7 5 11 22 36 38 32 31 42 43 42 49 53 48 46 42 45 41 34 19 18 20 24 20 18 17 19 19 17 17 18 20 22 24 25 26 30 37 36 31 30 33 36 33 29 23
8 5 3 2 4 14 12 27 22 9 17 28 37 46 52 55 53 52 56 48 48 42 24 15 16 25 22 21 20 20 19 20 21 23 23 24 24 25 25 25 31 34 29 28 29 29 30 28 31
2 5 5 4 4 4 21 6 7 3 15 16 25 38 42 46 51 50 72 65 56 45 24 10 20 27 24 22 22 22 22 24 23 26 26 25 26 26 25 23 25 30 30 26 27 26 25 25 26
6 12 4 2 6 7 13 12 3 11 19 12 19 19 27 33 40 49 51 48 60 52 39 15 32 32 27 20 19 20 21 23 26 29 25 25 26 23 23 22 23 26 27 25 22 23 25 25 19
3 7 7 6 6 3 12 8 11 10 12 22 18 19 18 24 28 38 30 30 45 53 54 38 28 34 27 16 16 17 18 22 23 24 25 24 24 24 23 22 23 24 24 24 24 19 19 22 24
16 5 8 4 1 5 6 7 7 9 11 19 19 23 28 31 35 36 27 10 20 33 46 40 34 37 27 12 11 13 14 18 21 21 23 23 24 26 23 20 21 23 24 25 24 23 21 25 28
1 3 5 6 7 10 5 7 11 14 11 15 22 28 32 34 39 31 28 10 11 34 47 29 39 36 20 16 10 9 8 11 14 17 19 19 20 21 17 19 21 23 25 26 28 29 30 31 34
4 1 3 7 11 16 2 7 9 5 17 13 14 19 31 39 41 35 27 15 5 25 35 32 31 27 20 21 13 7 6 9 13 16 16 16 17 18 18 20 22 24 27 29 32 35 35 37 40
9 3 6 8 1 7 4 8 15 7 11 10 15 25 33 36 42 40 33 19 6 14 26 40 18 18 23 22 19 9 7 7 12 15 15 17 18 20 22 24 26 28 31 34 36 40 40 42 45
1 12 2 1 7 15 7 9 12 9 16 15 11 22 25 26 35 38 29 20 10 7 30 43 18 9 15 24 20 11 12 12 15 18 18 18 20 23 26 27 30 32 34 35 39 43 46 48 50
5 4 8 2 3 8 9 12 7 9 15 14 8 15 19 24 30 30 24 20 9 7 30 40 26 4 2 11 14 10 13 18 22 23 20 18 21 25 29 30 33 35 37 38 41 44 48 53 57
2 3 4 5 4 3 6 9 5 9 7 6 9 11 13 20 24 23 17 10 10 7 19 31 42 28 9 7 10 7 17 24 28 24 20 21 23 26 32 37 40 42 44 47 51 54 56 59 62
Wind_Direction_500mb
89 109 101 45 132 74 67 64 308 128 149 76 123 103 57 45 15 86 131 126 74 71 68 52 32 13 4 358 5 13 4 352 337 328 324 325 331 331 330 328 323 317 311 300 289 285 288 290 282
98 86 53 56 79 107 101 291 169 133 108 109 92 100 67 74 76 128 133 145 96 89 66 37 31 5 1 355 8 5 355 343 332 322 326 332 326 325 328 329 332 343 357 351 327 307 301 293 292
66 64 48 60 83 92 115 172 135 118 81 36 108 79 78 64 126 149 156 158 146 130 17 349 358 3 351 353 353 357 355 2 347 327 328 327 322 328 329 330 334 346 1 6 5 358 334 328 314
48 28 55 63 78 70 98 129 113 95 71 64 108 102 89 128 161 160 164 174 173 201 296 316 330 341 340 342 336 344 358 7 1 347 338 329 324 328 330 330 334 353 1 2 1 3 356 337 317
36 54 60 73 61 70 130 135 125 151 91 180 144 122 92 104 149 164 174 189 214 292 302 302 328 322 319 313 322 349 359 359 355 344 328 313 307 319 328 325 337 350 360 353 356 349 338 337 333
82 84 79 78 93 120 142 161 199 142 131 119 144 134 118 146 157 173 188 231 282 294 306 314 308 292 298 304 324 342 353 357 1 4 9 340 333 331 339 330 331 336 346 336 334 328 328 324 320
69 60 90 120 136 170 179 168 197 131 113 117 132 123 147 176 187 197 216 257 288 300 305 305 288 278 266 283 306 336 357 360 6 9 5 348 335 331 335 334 330 330 328 326 326 327 324 318 312
78 89 130 119 167 177 179 162 147 137 158 150 166 202 187 198 196 196 224 249 286 303 309 304 289 249 251 279 311 340 353 3 11 16 3 340 332 331 330 328 329 329 326 326 328 329 326 323 310
71 84 141 150 173 183 176 184 169 205 189 189 204 249 249 198 194 201 233 276 300 310 322 328 313 259 238 249 312 337 353 6 15 15 7 354 347 338 335 335 334 331 331 332 329 325 318 315 315
45 73 177 187 185 184 176 191 182 195 190 219 242 243 209 193 196 219 255 295 307 318 329 338 323 233 229 250 305 326 352 7 12 13 8 6 6 358 347 342 341 339 336 330 326 324 317 313 300
62 20 157 200 194 181 173 183 185 192 211 220 218 202 195 201 208 227 261 296 309 321 333 339 341 246 234 266 297 327 352 5 9 11 7 9 6 360 352 348 346 345 338 332 334 334 327 314 294
329 23 165 139 195 160 170 171 201 201 200 225 229 219 200 210 220 239 269 292 318 333 334 336 341 307 255 261 282 330 350 0 7 10 13 11 8 2 353 351 351 350 345 344 340 337 332 318 297
327 29 123 153 184 180 175 198 224 231 224 262 205 203 210 220 226 238 250 290 324 340 339 343 335 305 270 272 299 334 346 359 6 11 15 15 13 9 2 359 357 358 354 347 347 347 341 326 305
1 15 79 139 177 193 208 213 207 260 210 220 205 209 220 227 235 241 245 267 308 335 345 342 330 311 274 279 299 324 346 2 11 8 13 13 17 17 13 7 3 360 357 358 354 351 349 341 323
45 280 177 171 185 200 227 240 234 215 205 214 209 214 221 230 233 242 249 250 267 300 341 340 335 320 293 269 288 315 351 2 5 6 7 10 15 17 14 12 6 0 2 3 1 357 354 349 336
352 342 316 113 186 193 182 285 288 207 192 208 215 219 225 231 239 247 246 247 252 276 322 338 342 331 311 285 303 307 320 353 342 347 352 2 9 12 12 10 7 1 1 5 2 1 4 360 355
25 315 309 309 209 159 216 274 1 199 207 215 225 226 230 238 243 251 251 249 250 261 290 327 346 340 321 302 287 284 287 302 326 327 327 343 357 2 6 7 5 0 2 5 8 6 6 9 10
265 270 278 278 123 220 238 260 260 255 213 225 231 231 237 243 246 253 254 255 251 253 270 314 339 343 319 303 283 284 288 292 302 310 305 321 341 349 355 360 3 360 0 6 11 12 10 12 2
253 258 280 270 352 250 260 276 291 289 243 243 238 237 243 246 258 262 259 251 247 248 256 310 333 332 324 305 295 295 289 293 292 297 301 304 323 334 342 352 358 358 359 2 4 6 15 17 14
197 262 329 224 44 218 294 285 303 300 284 263 247 242 246 254 258 265 268 258 248 247 242 296 320 313 320 303 296 294 301 299 286 293 300 301 311 320 329 338 351 356 359 358 357 4 12 13 17
188 296 201 287 132 102 320 276 333 304 306 291 253 251 257 265 274 264 267 263 254 236 221 273 290 284 299 303 307 306 311 304 299 303 296 302 303 312 317 321 339 350 359 357 358 359 2 7 11
15 336 260 87 315 350 353 342 341 340 322 295 294 284 288 286 288 287 278 258 251 220 211 179 229 261 266 293 310 303 311 307 299 303 300 297 304 313 312 311 320 339 348 354 351 356 2 1 351
21 118 88 54 57 290 6 287 20 334 342 344 359 37 9 355 337 330 308 234 244 226 224 241 229 226 244 270 318 312 317 312 307 307 309 305 309 317 314 319 306 322 330 337 343 335 339 342 348
144 78 58 80 293 8 338 316 337 335 324 316 346 18 16 13 0 3 9 323 249 219 221 227 210 219 234 255 301 326 331 327 319 318 325 315 316 318 318 313 312 310 314 322 324 329 323 319 320
65 19 349 351 359 354 337 260 289 304 307 307 333 6 21 19 15 18 15 10 211 201 210 203 211 219 231 249 270 318 343 345 342 342 335 322 324 328 320 316 322 323 310 309 312 313 311 309 308
95 205 347 335 349 343 178 288 352 306 313 311 325 21 28 26 25 29 33 32 187 206 202 189 216 231 231 236 243 283 334 6 3 354 345 338 334 331 324 321 322 322 315 311 308 306 306 306 304
145 200 85 113 134 285 341 274 274 320 331 334 345 23 30 24 29 38 41 44 46 203 194 198 222 255 256 234 233 269 319 340 350 343 348 348 340 337 330 326 323 320 316 315 312 308 309 307 305
280 129 191 120 303 319 312 279 315 337 339 350 336 13 27 31 34 38 41 47 56 184 194 208 227 284 226 211 223 259 311 302 309 322 344 332 331 331 327 326 321 320 318 316 312 310 312 309 307
160 180 68 85 302 295 305 324 202 272 318 318 329 7 12 26 29 31 38 39 53 183 214 211 207 67 359 217 227 254 306 307 301 309 330 323 321 322 321 322 320 319 319 318 313 311 310 308 307
46 85 180 312 283 229 301 278 172 259 314 300 339 342 12 34 22 17 18 24 28 289 244 235 236 245 329 306 237 294 321 314 313 304 310 314 317 323 320 316 314 314 314 314 311 309 308 306 307
Wind_Speed_850mb
5 10 11 7 3 9 7 7 2 9 6 4 9 2 7 9 7 11 20 16 9 8 10 10 12 11 10 10 11 12 14 18 20 18 18 17 18 20 23 29 32 32 30 26 23 22 22 19 18
11 8 8 4 6 10 6 4 12 2 14 21 18 12 10 10 9 21 17 13 6 7 7 8 9 9 8 8 9 11 18 22 20 16 14 16 19 23 28 31 30 25 22 20 16 15 16 18 18
11 8 5 6 6 8 8 3 12 25 8 4 5 8 6 7 14 17 20 12 7 3 4 4 6 8 8 7 8 14 22 24 18 15 16 15 18 23 29 31 26 22 23 24 25 22 15 14 14
6 8 10 8 16 8 7 15 18 5 8 8 8 13 12 4 8 15 19 12 9 1 4 4 6 7 8 7 9 16 23 25 22 17 14 15 18 22 25 28 27 22 25 27 27 24 20 17 15
6 6 9 9 9 5 10 10 6 3 3 2 4 8 8 12 19 20 15 11 5 7 10 10 10 10 9 9 9 18 24 26 26 17 10 11 16 19 20 24 25 23 21 23 26 25 23 23 21
3 5 6 7 7 7 9 10 7 4 8 8 11 13 6 18 19 17 11 7 7 10 12 14 14 10 11 10 12 17 20 28 30 20 12 10 14 18 20 17 20 22 25 25 29 29 28 25 23
7 6 7 11 11 10 11 9 6 10 8 5 7 6 7 17 21 14 10 7 11 13 16 17 14 13 11 9 12 14 23 30 31 22 15 13 15 19 21 21 23 29 30 31 32 30 27 26 25
8 7 8 5 14 5 13 8 14 12 6 9 9 6 9 27 22 15 13 12 13 15 16 13 11 10 10 8 10 14 23 31 29 24 17 15 18 21 22 22 27 33 35 33 29 28 27 26 25
7 5 5 9 13 6 20 11 9 5 8 10 10 9 13 29 23 18 16 12 16 18 16 13 8 10 11 6 11 15 23 30 29 25 22 19 21 20 20 24 28 33 30 26 27 29 30 28 25
3 3 7 10 16 9 22 18 22 11 16 9 9 16 16 28 23 20 14 17 20 19 17 14 7 11 14 10 11 14 21 27 28 26 28 25 24 21 21 25 29 29 25 28 30 34 30 27 22
2 7 6 10 17 14 28 17 16 13 14 23 23 25 29 29 25 21 16 17 16 17 18 17 8 6 13 12 11 15 20 25 27 26 31 30 28 24 24 28 31 29 28 31 31 31 26 23 19
3 3 3 6 13 13 18 18 16 31 15 12 31 23 31 29 26 18 15 15 14 17 18 16 10 4 11 13 10 13 19 22 23 25 31 30 28 27 26 28 30 33 35 34 35 33 27 19 16
3 4 6 1 10 7 13 12 10 25 22 14 28 34 35 30 27 22 18 9 11 16 16 16 14 9 7 9 10 13 17 17 19 24 31 33 31 31 31 31 32 32 35 40 38 33 27 19 15
5 4 4 5 14 12 12 9 9 10 37 17 34 36 37 37 32 27 22 13 10 12 15 16 15 11 10 9 10 13 9 10 12 19 29 34 31 31 30 31 32 32 36 38 40 38 33 25 15
2 5 3 9 14 5 10 19 27 18 39 30 40 42 43 44 40 37 27 22 14 10 15 16 14 12 8 7 7 8 4 7 10 17 25 31 30 32 34 33 32 35 36 38 38 34 32 30 20
3 0 7 4 14 6 7 20 4 24 33 38 41 43 50 49 47 43 34 29 22 13 13 15 14 13 9 7 8 5 3 4 8 14 20 27 28 29 34 38 38 35 36 38 39 38 34 29 20
5 11 11 10 15 6 20 25 11 10 31 36 44 48 49 48 48 48 43 36 28 19 14 14 15 15 12 10 9 10 10 9 10 14 18 23 25 26 31 36 40 37 35 37 39 37 36 30 18
5 9 7 13 1 17 19 41 23 11 29 42 54 44 46 48 52 48 47 41 34 25 16 13 16 18 16 14 13 16 17 14 13 13 17 21 25 25 28 33 38 36 32 32 35 36 33 30 14
10 12 11 7 5 11 22 36 38 32 31 42 43 42 49 53 48 46 42 45 41 34 19 18 20 24 20 18 17 19 19 17 17 18 20 22 24 25 26 30 37 36 31 30 33 36 33 29 23
8 5 3 2 4 14 12 27 22 9 17 28 37 46 52 55 53 52 56 48 48 42 24 15 16 25 22 21 20 20 19 20 21 23 23 24 24 25 25 25 31 34 29 28 29 29 30 28 31
2 5 5 4 4 4 21 6 7 3 15 16 25 38 42 46 51 50 72 65 56 45 24 10 20 27 24 22 22 22 22 24 23 26 26 25 26 26 25 23 25 30 30 26 27 26 25 25 26
6 12 4 2 6 7 13 12 3 11 19 12 19 19 27 33 40 49 51 48 60 52 39 15 32 32 27 20 19 20 21 23 26 29 25 25 26 23 23 22 23 26 27 25 22 23 25 25 19
3 7 7 6 6 3 12 8 11 10 12 22 18 19 18 24 28 38 30 30 45 53 54 38 28 34 27 16 16 17 18 22 23 24 25 24 24 24 23 22 23 24 24 24 24 19 19 22 24
16 5 8 4 1 5 6 7 7 9 11 19 19 23 28 31 35 36 27 10 20 33 46 40 34 37 27 12 11 13 14 18 21 21 23 23 24 26 23 20 21 23 24 25 24 23 21 25 28
1 3 5 6 7 10 5 7 11 14 11 15 22 28 32 34 39 31 28 10 11 34 47 29 39 36 20 16 10 9 8 11 14 17 19 19 20 21 17 19 21 23 25 26 28 29 30 31 34
4 1 3 7 11 16 2 7 9 5 17 13 14 19 31 39 41 35 27 15 5 25 35 32 31 27 20 21 13 7 6 9 13 16 16 16 17 18 18 20 22 24 27 29 32 35 35 37 40
9 3 6 8 1 7 4 8 15 7 11 10 15 25 33 36 42 40 33 19 6 14 26 40 18 18 23 22 19 9 7 7 12 15 15 17 18 20 22 24 26 28 31 34 36 40 40 42 45
1 12 2 1 7 15 7 9 12 9 16 15 11 22 25 26 35 38 29 20 10 7 30 43 18 9 15 24 20 11 12 12 15 18 18 18 20 23 26 27 30 32 34 35 39 43 46 48 50
5 4 8 2 3 8 9 12 7 9 15 14 8 15 19 24 30 30 24 20 9 7 30 40 26 4 2 11 14 10 13 18 22 23 20 18 21 25 29 30 33 35 37 38 41 44 48 53 57
2 3 4 5 4 3 6 9 5 9 7 6 9 11 13 20 24 23 17 10 10 7 19 31 42 28 9 7 10 7 17 24 28 24 20 21 23 26 32 37 40 42 44 47 51 54 56 59 62
Wind_Direction_850mb
89 109 101 45 132 74 67 64 308 128 149 76 123 103 57 45 15 86 131 126 74 71 68 52 32 13 4 358 5 13 4 352 337 328 324 325 331 331 330 328 323 317 311 300 289 285 288 290 282
98 86 53 56 79 107 101 291 169 133 108 109 92 100 67 74 76 128 133 145 96 89 66 37 31 5 1 355 8 5 355 343 332 322 326 332 326 325 328 329 332 343 357 351 327 307 301 293 292
66 64 48 60 83 92 115 172 135 118 81 36 108 79 78 64 126 149 156 158 146 130 17 349 358 3 351 353 353 357 355 2 347 327 328 327 322 328 329 330 334 346 1 6 5 358 334 328 314
48 28 55 63 78 70 98 129 113 95 71 64 108 102 89 128 161 160 164 174 173 201 296 316 330 341 340 342 336 344 358 7 1 347 338 329 324 328 330 330 334 353 1 2 1 3 356 337 317
36 54 60 73 61 70 130 135 125 151 91 180 144 122 92 104 149 164 174 189 214 292 302 302 328 322 319 313 322 349 359 359 355 344 328 313 307 319 328 325 337 350 360 353 356 349 338 337 333
82 84 79 78 93 120 142 161 199 142 131 119 144 134 118 146 157 173 188 231 282 294 306 314 308 292 298 304 324 342 353 357 1 4 9 340 333 331 339 330 331 336 346 336 334 328 328 324 320
69 60 90 120 136 170 179 168 197 131 113 117 132 123 147 176 187 197 216 257 288 300 305 305 288 278 266 283 306 336 357 360 6 9 5 348 335 331 335 334 330 330 328 326 326 327 324 318 312
78 89 130 119 167 177 179 162 147 137 158 150 166 202 187 198 196 196 224 249 286 303 309 304 289 249 251 279 311 340 353 3 11 16 3 340 332 331 330 328 329 329 326 326 328 329 326 323 310
71 84 141 150 173 183 176 184 169 205 189 189 204 249 249 198 194 201 233 276 300 310 322 328 313 259 238 249 312 337 353 6 15 15 7 354 347 338 335 335 334 331 331 332 329 325 318 315 315
45 73 177 187 185 184 176 191 182 195 190 219 242 243 209 193 196 219 255 295 307 318 329 338 323 233 229 250 305 326 352 7 12 13 8 6 6 358 347 342 341 339 336 330 326 324 317 313 300
62 20 157 200 194 181 173 183 185 192 211 220 218 202 195 201 208 227 261 296 309 321 333 339 341 246 234 266 297 327 352 5 9 11 7 9 6 360 352 348 346 345 338 332 334 334 327 314 294
329 23 165 139 195 160 170 171 201 201 200 225 229 219 200 210 220 239 269 292 318 333 334 336 341 307 255 261 282 330 350 0 7 10 13 11 8 2 353 351 351 350 345 344 340 337 332 318 297
327 29 123 153 184 180 175 198 224 231 224 262 205 203 210 220 226 238 250 290 324 340 339 343 335 305 270 272 299 334 346 359 6 11 15 15 13 9 2 359 357 358 354 347 347 347 341 326 305
1 15 79 139 177 193 208 213 207 260 210 220 205 209 220 227 235 241 245 267 308 335 345 342 330 311 274 279 299 324 346 2 11 8 13 13 17 17 13 7 3 360 357 358 354 351 349 341 323
45 280 177 171 185 200 227 240 234 215 205 214 209 214 221 230 233 242 249 250 267 300 341 340 335 320 293 269 288 315 351 2 5 6 7 10 15 17 14 12 6 0 2 3 1 357 354 349 336
352 342 316 113 186 193 182 285 288 207 192 208 215 219 225 231 239 247 246 247 252 276 322 338 342 331 311 285 303 307 320 353 342 347 352 2 9 12 12 10 7 1 1 5 2 1 4 360 355
25 315 309 309 209 159 216 274 1 199 207 215 225 226 230 238 243 251 251 249 250 261 290 327 346 340 321 302 287 284 287 302 326 327 327 343 357 2 6 7 5 0 2 5 8 6 6 9 10
265 270 278 278 123 220 238 260 260 255 213 225 231 231 237 243 246 253 254 255 251 253 270 314 339 343 319 303 283 284 288 292 302 310 305 321 341 349 355 360 3 360 0 6 11 12 10 12 2
253 258 280 270 352 250 260 276 291 289 243 243 238 237 243 246 258 262 259 251 247 248 256 310 333 332 324 305 295 295 289 293 292 297 301 304 323 334 342 352 358 358 359 2 4 6 15 17 14
197 262 329 224 44 218 294 285 303 300 284 263 247 242 246 254 258 265 268 258 248 247 242 296 320 313 320 303 296 294 301 299 286 293 300 301 311 320 329 338 351 356 359 358 357 4 12 13 17
188 296 201 287 132 102 320 276 333 304 306 291 253 251 257 265 274 264 267 263 254 236 221 273 290 284 299 303 307 306 311 304 299 303 296 302 303 312 317 321 339 350 359 357 358 359 2 7 11
15 336 260 87 315 350 353 342 341 340 322 295 294 284 288 286 288 287 278 258 251 220 211 179 229 261 266 293 310 303 311 307 299 303 300 297 304 313 312 311 320 339 348 354 351 356 2 1 351
21 118 88 54 57 290 6 287 20 334 342 344 359 37 9 355 337 330 308 234 244 226 224 241 229 226 244 270 318 312 317 312 307 307 309 305 309 317 314 319 306 322 330 337 343 335 339 342 348
144 78 58 80 293 8 338 316 337 335 324 316 346 18 16 13 0 3 9 323 249 219 221 227 210 219 234 255 301 326 331 327 319 318 325 315 316 318 318 313 312 310 314 322 324 329 323 319 320
65 19 349 351 359 354 337 260 289 304 307 307 333 6 21 19 15 18 15 10 211 201 210 203 211 219 231 249 270 318 343 345 342 342 335 322 324 328 320 316 322 323 310 309 312 313 311 309 308
95 205 347 335 349 343 178 288 352 306 313 311 325 21 28 26 25 29 33 32 187 206 202 189 216 231 231 236 243 283 334 6 3 354 345 338 334 331 324 321 322 322 315 311 308 306 306 306 304
145 200 85 113 134 285 341 274 274 320 331 334 345 23 30 24 29 38 41 44 46 203 194 198 222 255 256 234 233 269 319 340 350 343 348 348 340 337 330 326 323 320 316 315 312 308 309 307 305
280 129 191 120 303 319 312 279 315 337 339 350 336 13 27 31 34 38 41 47 56 184 194 208 227 284 226 211 223 259 311 302 309 322 344 332 331 331 327 326 321 320 318 316 312 310 312 309 307
160 180 68 85 302 295 305 324 202 272 318 318 329 7 12 26 29 31 38 39 53 183 214 211 207 67 359 217 227 254 306 307 301 309 330 323 321 322 321 322 320 319 319 318 313 311 310 308 307
46 85 180 312 283 229 301 278 172 259 314 300 339 342 12 34 22 17 18 24 28 289 244 235 236 245 329 306 237 294 321 314 313 304 310 314 317 323 320 316 314 314 314 314 311 309 308 306 307